Location: Congrier
(47.8099°N, 1.1170°W)
Time: 00:25:15
(UTC+00:00)

RESURS DK-1 - Pass Details

Date: 28 January 2023
Orbit: 549 x 557 km, 69.9° (Epoch: 21 March)

Event Time Altitude Azimuth Distance (km) Brightness Sun altitude
Rises 18:32:31 0° 342° (NNW) 2,738 6.0 -15.8°
Reaches altitude 10° 18:35:38 10° 7° (N) 1,842 4.8 -16.3°
Enters shadow 18:36:43 13° 22° (NNE) 1,651 4.5 -16.5°
